Weather Service Report


402 
ASUS46 KSEW 241610
RWRWA 

WASHINGTON REGIONAL WEATHER ROUNDUP
NATIONAL WEATHER SERVICE SEATTLE WA
800 AM PST MON NOV 24 2014

NOTE:"FAIR" INDICATES FEW OR NO CLOUDS BELOW 12,000 FEET WITH NO 
SIGNIFICANT WEATHER AND/OR OBSTRUCTIONS TO VISIBILITY.

WAZ505-507>509-241700-
SEATTLE, TACOMA, EVERETT, AND VICINITY
  
CITY           SKY/WX    TMP DP  RH WIND       PRES   REMARKS
EVERETT        CLOUDY    43  38  82 VRB6      30.31F                  
BOEING FIELD   CLOUDY    43  36  76 SE6       30.34F                  
RENTON         CLOUDY    40  37  89 S7        30.34F                  
SEATAC AIRPORT CLOUDY    40  33  76 S8        30.34F                  
JBLM-MCCHORD   MOCLDY    34  33  99 SE2       30.34F                  
PUYALLUP       NOT AVBL                                               
JBLM-FT LEWIS  MOCLDY    34  33  99 CALM      30.34S                  
TACOMA NARROWS MOCLDY    41  39  93 SE3       30.34F                  
$$
 
WAZ001-503-506-510-514-515-241700-
NORTH INTERIOR
  
CITY           SKY/WX    TMP DP  RH WIND       PRES   REMARKS
BELLINGHAM     CLOUDY    43  40  89 E3        30.28F                  
FRIDAY HARBOR  CLOUDY    46  42  86 E8        30.30S                  
EASTSOUND      CLOUDY    48  41  76 S6        30.27F                  
PORT ANGELES   CLOUDY    40  34  79 CALM      30.27F                  
NAS WHIDBEY    CLOUDY    49  40  71 E14       30.29F                  
BURLINGTON     PTCLDY    45  41  87 E7        30.31F                  
$$
 
WAZ020-022-039-040-504-511-512-241700-
SOUTHWEST INTERIOR
  
CITY           SKY/WX    TMP DP  RH WIND       PRES   REMARKS
SHELTON        FOG       30  29  96 CALM      30.32S VSB 1/2          
OLYMPIA        CLOUDY    42  40  92 SW7       30.34S                  
CHEHALIS       CLOUDY    45  41  87 S7        30.35S                  
KELSO          CLOUDY    46  43  87 S3        30.39S                  
VANCOUVER      CLOUDY    48  46  93 SE3       30.37S                  
SCAPPOOSE, OR  CLOUDY    47  46  97 CALM      30.37R FOG              
PORTLAND, OR   CLOUDY    47  47 100 CALM      30.38S                  
$$
 
WAZ021-516-517-241700-
WASHINGTON COAST
  
CITY           SKY/WX    TMP DP  RH WIND       PRES   REMARKS
FORKS          CLOUDY    44  41  89 E3        30.25F                  
HOQUIAM        CLOUDY    41  41 100 NE9       30.33R                  
ASTORIA, OR    CLOUDY    44  43  96 E6        30.31F                  
$$
 
WAZ019-023-024-040-518-519-241700-
CASCADE MOUNTAINS AND COLUMBIA GORGE
  
CITY           SKY/WX    TMP DP  RH WIND       PRES   REMARKS
STAMPEDE PASS  NOT AVBL                                               
TROUTDALE, OR  CLOUDY    48  45  89 E3        30.36F                  
THE DALLES, OR MOCLDY    38  34  85 CALM      30.40S                  
$$

WAZ026-027-041>044-520-521-241700-
EAST SLOPES
  
CITY           SKY/WX    TMP DP  RH WIND       PRES   REMARKS
OMAK           CLOUDY    25  23  92 CALM      30.33R                  
WENATCHEE      CLOUDY    39  28  64 NW6       30.32S                  
ELLENSBURG     MOCLDY    32  26  78 CALM      30.33R                  
YAKIMA         MOCLDY    28  24  85 W7        30.37R                  
$$

WAZ028-034-035-241700-
COLUMBIA BASIN
  
CITY           SKY/WX    TMP DP  RH WIND       PRES   REMARKS
EPHRATA        CLOUDY    33  28  81 SE3       30.31S                  
MOSES LAKE     CLOUDY    31  28  89 S6        30.33S                  
PASCO          PTCLDY    27  26  96 CALM      30.38R                  
HERMISTON, OR  CLEAR     34  31  88 S6        30.38R                  
$$

WAZ036>038-241700-
NORTHEAST WASHINGTON
  
CITY           SKY/WX    TMP DP  RH WIND       PRES   REMARKS
SPOKANE GEIGER MOCLDY    28  27  96 SE12      30.31R WCI  18          
SPOKANE FELTS  MOCLDY    30  27  88 NE3       30.35R                  
FAIRCHILD AFB  MOCLDY    28  26  95 SE7       30.31R                  
COEURDALENE,ID MOCLDY    30  27  86 S5        30.32R                  
DEER PARK      CLOUDY    22  20  92 CALM      30.33R                  
$$

WAZ029>033-241700-
SOUTHEAST WASHINGTON
  
CITY           SKY/WX    TMP DP  RH WIND       PRES   REMARKS
PULLMAN        PTCLDY    33  29  85 CALM      30.36R                  
LEWISTON, ID   CLEAR     37  30  75 CALM      30.39R                  
WALLA WALLA    CLEAR     44  35  70 S9        30.37R                  
PENDLETON, OR  PTCLDY    36  31  82 SE9       30.37R                  
$$

Return to Home page


Western Regional Climate Center, wrcc@dri.edu